Tracking 18843 objects as of 20-November-2017
HD Live streaming from Space Station
objects crossing your sky now

COSMOS 593

Track COSMOS 593 now!
10-day predictions
COSMOS 593 is classified as:


NORAD ID: 6850
Int'l Code: 1973-069F
Perigee: 1,370.4 km
Apogee: 1,492.5 km
Inclination: 74.0 °
Period: 114.3 minutes
Semi major axis: 7802 km
RCS: 0.6935 m2 (medium)
Launch date: October 2, 1973
Source: Commonwealth of Independent States (former USSR) (CIS)
Launch site: PLESETSK MISSILE AND SPACE COMPLEX (PKMTR)
aabbcc
Your satellite tracking list
Your tracking list is empty




NASA's NSSDC Master Catalog

Two Line Element Set (TLE):
1  6850U 73069F   17323.93111936 -.00000034 +00000-0 -98684-4 0  9991
2  6850 073.9999 102.4862 0078270 333.9962 172.2659 12.59666803029288
Source of the keplerian elements: AFSPC